This demonstration page uses our WeatherBlox Daily Observations layout. Learn more.

Left ArrowRight Arrow

36.17497, -115.13722

Hourly Observations for January 22, 2022

Temp ( °F °C ) Dew Point ( °F °C ) Humidity (%) Winds ( mph kmh ) Pressure ( in mb ) Visibility ( mi km ) Precip ( " mm )
12:53 am 00:53 Clear 51 10.6 19 -7.2 28 28 NNW 18 30 30.17 1022 10 16 0.00 0.00
1:53 am 01:53 Clear 50 10 19 -7.2 29 29 NNW 22 35 30.18 1022 10 16 0.00 0.00
2:53 am 02:53 Partly Cloudy 50 10 18 -7.8 28 28 NNW 23 37 30.18 1022 10 16 0.00 0.00
3:53 am 03:53 Clear 49 9.4 18 -7.8 29 29 NNW 16 26 30.18 1022 10 16 0.00 0.00
4:53 am 04:53 Clear 48 8.9 17 -8.3 29 29 N 13 20 30.19 1022 10 16 0.00 0.00
5:53 am 05:53 Cloudy 48 8.9 17 -8.3 29 29 NNW 16 26 30.19 1023 10 16 0.00 0.00
6:53 am 06:53 Sunny 48 8.9 16 -8.9 28 28 N 13 20 30.21 1023 10 16 0.00 0.00
7:53 am 07:53 Sunny 48 8.9 16 -8.9 28 28 NNW 16 26 30.24 1024 10 16 0.00 0.00
8:53 am 08:53 Mostly Cloudy 51 10.6 16 -8.9 25 25 NNW 22 35 30.24 1024 10 16 0.00 0.00
9:53 am 09:53 Sunny 54 12.2 16 -8.9 22 22 NNW 18 30 30.25 1024 10 16 0.00 0.00
10:53 am 10:53 Sunny 57 13.9 17 -8.3 21 21 NNW 18 30 30.22 1024 10 16 0.00 0.00
11:53 am 11:53 Sunny 59 15 17 -8.3 19 19 NW 18 30 30.20 1023 10 16 0.00 0.00
12:53 pm 12:53 Sunny 61 16.1 18 -7.8 19 19 NNW 18 30 30.18 1022 10 16 0.00 0.00
1:53 pm 13:53 Sunny 62 16.7 18 -7.8 18 18 NNW 13 20 30.17 1022 10 16 0.00 0.00
2:53 pm 14:53 Sunny 63 17.2 18 -7.8 17 17 NNE 10 17 30.16 1021 10 16 0.00 0.00
3:53 pm 15:53 Sunny 63 17.2 18 -7.8 17 17 N 14 22 30.16 1021 10 16 0.00 0.00
4:53 pm 16:53 Sunny 61 16.1 17 -8.3 18 18 N 8 13 30.16 1022 10 16 0.00 0.00
5:53 pm 17:53 Mostly Clear 59 15 18 -7.8 20 20 NNW 6 9 30.19 1022 10 16 0.00 0.00
6:53 pm 18:53 Clear 56 13.3 17 -8.3 22 22 VRB 7 11 30.22 1023 10 16 0.00 0.00
7:53 pm 19:53 Clear 56 13.3 18 -7.8 22 22 N 10 17 30.24 1024 10 16 0.00 0.00
8:53 pm 20:53 Clear 56 13.3 18 -7.8 22 22 NW 14 22 30.24 1024 10 16 0.00 0.00
9:53 pm 21:53 Clear 55 12.8 17 -8.3 22 22 NNW 14 22 30.27 1025 10 16 0.00 0.00
10:53 pm 22:53 Clear 54 12.2 16 -8.9 22 22 NNW 18 30 30.27 1025 10 16 0.00 0.00
11:53 pm 23:53 Clear 53 11.7 16 -8.9 23 23 NNW 14 22 30.28 1025 10 16 0.00 0.00

Powered by AerisWeather